Weather History for Tucson, AZ

Change the Weather History Date:

Wednesday, September 25, 2013

  Actual Average Record
Temperature  
Mean Temperature 82 °F 79 °F  
Max Temperature 96 °F 92 °F 104 °F (1899)
Min Temperature 67 °F 66 °F 48 °F (1913)
Degree Days  
Heating Degree Days 0 0  
Month to date heating degree days 0 0  
Since 1 July heating degree days 0 0  
Cooling Degree Days 17 14  
Month to date cooling degree days 495 435  
Year to date cooling degree days 3369 2845  
Growing Degree Days 31 (Base 50)    
Moisture  
Dew Point 24 °F    
Average Humidity 15    
Maximum Humidity 22    
Minimum Humidity 7    
Precipitation  
Precipitation 0.00 in 0.03 in 1.25 in (1976)
Month to date precipitation 0.63 1.12  
Year to date precipitation 5.48 9.03  
Snow  
Snow 0.00 in 0.00 in 0.00 in (2002)
Month to date snowfall 0.0 0.0  
Since 1 July snowfall 0.0 0.0  
Snow Depth 0.00 in    
Sea Level Pressure  
Sea Level Pressure 29.70 in    
Wind  
Wind Speed 10 mph (South)    
Max Wind Speed 22 mph    
Max Gust Speed 28 mph    
Visibility 10 miles    
Events      
T = Trace of Precipitation, MM = Missing Value Source: NWS Daily Summary

Daily Weather History Graph

Daily Weather History Graph

Search for Another Location

Airport:

Trip Planner

Search our weather history database for the weather conditions in past years. The results will help you decide how hot, cold, wet, or windy it might be!

Date:

Astronomy

Sep. 25, 2013 Rise Set
Actual Time 6:14 AM MST 6:16 PM MST
Civil Twilight 5:49 AM MST 6:40 PM MST
Nautical Twilight 5:21 AM MST 7:08 PM MST
Astronomical Twilight 4:52 AM MST 7:37 PM MST
Moon 10:43 PM MST (9/25) 12:04 PM MST (9/25)
Length of Visible Light 12h 50m
Length of Day
12h 01m
Waning Gibbous, 63% of the Moon is Illuminated
Sep 25
Waning Gibbous
Sep 26
Last Quarter
Oct 4
New
Oct 11
First Quarter
Oct 18
Full

Hourly Weather History & Observations

Time (MST) Temp. Dew Point Humidity Pressure Visibility Wind Dir Wind Speed Gust Speed Precip Events Conditions
12:53 AM 73.0 °F 28.0 °F 19% 29.78 in 10.0 mi SSE 8.1 mph - N/A   Clear
1:53 AM 72.0 °F 28.0 °F 20% 29.75 in 10.0 mi SE 6.9 mph - N/A   Clear
2:53 AM 71.1 °F 28.9 °F 21% 29.75 in 10.0 mi ESE 8.1 mph - N/A   Clear
3:53 AM 69.1 °F 28.9 °F 22% 29.75 in 10.0 mi SE 8.1 mph - N/A   Clear
4:53 AM 68.0 °F 28.0 °F 22% 29.76 in 10.0 mi SSE 9.2 mph - N/A   Clear
5:53 AM 66.9 °F 27.0 °F 22% 29.77 in 10.0 mi SE 8.1 mph - N/A   Clear
6:53 AM 66.9 °F 27.0 °F 22% 29.77 in 10.0 mi SE 9.2 mph - N/A   Clear
7:53 AM 73.0 °F 27.0 °F 18% 29.78 in 10.0 mi SE 9.2 mph - N/A   Clear
8:53 AM 81.0 °F 25.0 °F 13% 29.77 in 10.0 mi ESE 10.4 mph - N/A   Clear
9:53 AM 84.9 °F 21.0 °F 10% 29.75 in 10.0 mi SE 8.1 mph - N/A   Clear
10:53 AM 90.0 °F 21.0 °F 8% 29.72 in 10.0 mi SSE 15.0 mph 20.7 mph N/A   Clear
11:53 AM 93.0 °F 23.0 °F 8% 29.69 in 10.0 mi SSW 12.7 mph - N/A   Clear
12:53 PM 93.9 °F 23.0 °F 8% 29.67 in 10.0 mi SW 17.3 mph 26.5 mph N/A   Clear
1:53 PM 93.9 °F 25.0 °F 8% 29.64 in 10.0 mi South 13.8 mph 27.6 mph N/A   Clear
2:53 PM 95.0 °F 24.1 °F 8% 29.62 in 10.0 mi South 12.7 mph 26.5 mph N/A   Clear
3:53 PM 93.9 °F 21.0 °F 7% 29.62 in 10.0 mi WSW 19.6 mph - N/A   Clear
4:53 PM 91.0 °F 23.0 °F 8% 29.62 in 10.0 mi WSW 17.3 mph 25.3 mph N/A   Clear
5:53 PM 88.0 °F 23.0 °F 9% 29.62 in 10.0 mi SW 12.7 mph - N/A   Clear
6:53 PM 82.9 °F 19.9 °F 10% 29.65 in 10.0 mi WSW 9.2 mph - N/A   Clear
7:53 PM 81.0 °F 19.9 °F 10% 29.66 in 10.0 mi WSW 6.9 mph - N/A   Clear
8:53 PM 80.1 °F 19.9 °F 11% 29.67 in 10.0 mi SSW 4.6 mph - N/A   Clear
9:53 PM 75.9 °F 21.9 °F 13% 29.68 in 10.0 mi SSE 9.2 mph - N/A   Clear
10:53 PM 73.9 °F 21.0 °F 14% 29.69 in 10.0 mi SSE 5.8 mph - N/A   Clear
11:53 PM 73.9 °F 18.0 °F 12% 29.68 in 10.0 mi South 6.9 mph - N/A   Clear